Flag for Belgium Weather past 2 weeks in Brussels, Belgium

Now
38 °F

Chilly.


Feels Like: 34 °F
Forecast: 33 / 38 °F
Wind: 5 mph from North

Location: Uccle

Current Time: Feb 1, 2015 at 8:12:00 PM

Latest Report: Feb 1, 2015 at 7:00 PM


Visibility: N/A

Pressure: 29.44 "Hg

Humidity: 91%

Dew point: 35 °F

Location of BrusselsLocation

Historic Weather in Brussels — Graph

°F

Brussels temperature yesterday

Maximum temperature yesterday: 37 °F (at 1:00 PM)
Minimum temperature yesterday: 31 °F (at 8:00 AM)
Average temperature yesterday: 35 °F

Past Weeks' High & Low Weather Summary

 TemperatureHumidityPressure
High47 °F (Jan 26, 3:00 PM)96% (Jan 20, 5:00 AM)30.47 "Hg (Jan 20, 5:00 AM)
Low28 °F (Jan 22, 5:00 AM)69% (Jan 21, 2:00 PM)28.76 "Hg (Jan 29, 9:00 PM)
Average35 °F90%29.82 "Hg
* Reported Jan 17 6:00 PM — Feb 1 6:00 PM, Brussels, Weather by CustomWeather, © 2014

Note: Actual official high and low records may vary slightly from our data, if they occured in-between our weather recording intervals... More about our weather records

Advertising

Brussels weather history for previous 24 hours

 ConditionsComfort  
Time TempWeatherWind HumidityBarometerVisibility
6:00 PM
Feb 1
38 °FChilly.7 mph91%29.38 "HgN/A
5:00 PM39 °FChilly.6 mph90%29.32 "HgN/A
4:00 PM40 °FChilly.6 mph94%29.29 "HgN/A
3:00 PM38 °FChilly.5 mph95%29.23 "HgN/A
2:00 PM38 °FChilly.6 mph95%29.23 "HgN/A
1:00 PM36 °FChilly.5 mph95%29.23 "HgN/A
12:00 PM35 °FChilly.3 mph95%29.23 "HgN/A
11:00 AM35 °FChilly.5 mph94%29.23 "HgN/A
10:00 AM35 °FChilly.3 mph93%29.23 "HgN/A
9:00 AM35 °FChilly.5 mph93%29.23 "HgN/A
8:00 AM35 °FChilly.5 mph95%29.23 "HgN/A
7:00 AM35 °FChilly.3 mph96%29.21 "HgN/A
6:00 AM33 °FChilly.3 mph96%29.21 "HgN/A
5:00 AM33 °FChilly.2 mph95%29.18 "HgN/A
4:00 AM33 °FChilly.3 mph94%29.18 "HgN/A
3:00 AM34 °FChilly.3 mph95%29.15 "HgN/A
2:00 AM34 °FChilly.2 mph94%29.15 "HgN/A
1:00 AM34 °FChilly.2 mph93%29.15 "HgN/A
12:00 AM35 °FChilly.2 mph93%29.15 "HgN/A
11:00 PM
Jan 31
35 °FChilly.2 mph92%29.15 "HgN/A
10:00 PM35 °FChilly.2 mph92%29.15 "HgN/A
9:00 PM36 °FChilly.1 mph91%29.12 "HgN/A
8:00 PM36 °FChilly.2 mph90%29.09 "HgN/A
Weather by CustomWeather, © 2014

See weather overviewHow to use our weather pages